When you browse on this site, cookies collect data to enhance your experience and personalize the content and advertising you see.
Visit our Privacy Policy to learn more. By continuing to use the site, you agree to this use of cookies and data.
  • In Germany
  • List of Countries
  • For 7 days
  • Water Temperature
  • Weather Map
  • Weather Widgets
  • user-avatar
    Login

    Hourly Weather Kitzbuhel

    Today, 18 August, Sunday

    Time Temperature Precipitation Wind Pressure Humidity
    00:00 +18°C° 0 mm 1 mps 678 mmHg 72%
    01:00 +18°C° 0 mm 1 mps 678 mmHg 73%
    02:00 +17°C° 0 mm 2 mps 678 mmHg 71%
    03:00 +17°C° 0 mm 2 mps 677 mmHg 70%
    04:00 +17°C° 0 mm 2 mps 677 mmHg 68%
    05:00 +18°C° 0 mm 2 mps 677 mmHg 68%
    06:00 +19°C° 0 mm 2 mps 678 mmHg 68%
    07:00 +21°C° 0 mm 1 mps 678 mmHg 67%
    08:00 +23°C° 0 mm 1 mps 678 mmHg 60%
    09:00 +26°C° 0 mm 1 mps 679 mmHg 53%
    10:00 +28°C° 0 mm 1 mps 679 mmHg 45%
    11:00 +29°C° 0 mm 1 mps 679 mmHg 43%
    12:00 +30°C° 0 mm 1 mps 679 mmHg 41%
    13:00 +31°C° 0 mm 1 mps 679 mmHg 39%
    14:00 +29°C° 0 mm 1 mps 679 mmHg 47%
    15:00 +28°C° 0 mm 1 mps 678 mmHg 55%
    16:00 +26°C° 0 mm 1 mps 678 mmHg 63%
    17:00 +25°C° 0.2 mm 1 mps 677 mmHg 70%
    18:00 +23°C° 0.2 mm 1 mps 677 mmHg 77%
    19:00 +22°C° 0.2 mm 1 mps 677 mmHg 84%
    20:00 +20°C° 0.4 mm 1 mps 677 mmHg 86%
    21:00 +18°C° 0.4 mm 2 mps 677 mmHg 89%
    22:00 +17°C° 0.4 mm 2 mps 677 mmHg 91%
    23:00 +17°C° 0.2 mm 2 mps 677 mmHg 92%

    Tomorrow, 19 August, Monday

    Time Temperature Precipitation Wind Pressure Humidity
    00:00 +16°C° 0.2 mm 2 mps 678 mmHg 93%
    01:00 +16°C° 0.2 mm 1 mps 678 mmHg 94%
    02:00 +16°C° 0.4 mm 1 mps 678 mmHg 95%
    03:00 +16°C° 0.4 mm 1 mps 678 mmHg 96%
    04:00 +16°C° 0.4 mm 1 mps 678 mmHg 97%
    05:00 +18°C° 0.1 mm 1 mps 678 mmHg 96%
    06:00 +18°C° 0.1 mm 1 mps 679 mmHg 95%
    07:00 +19°C° 0.1 mm 1 mps 679 mmHg 94%
    08:00 +19°C° 0.7 mm 1 mps 679 mmHg 93%
    09:00 +19°C° 0.7 mm 1 mps 679 mmHg 92%
    10:00 +19°C° 0.7 mm 1 mps 680 mmHg 91%
    11:00 +20°C° 0.2 mm 1 mps 680 mmHg 82%
    12:00 +22°C° 0.2 mm 1 mps 680 mmHg 73%
    13:00 +23°C° 0.2 mm 2 mps 681 mmHg 64%
    14:00 +23°C° 0.5 mm 2 mps 680 mmHg 68%
    15:00 +21°C° 0.5 mm 2 mps 680 mmHg 73%
    16:00 +21°C° 0.5 mm 1 mps 680 mmHg 78%
    17:00 +20°C° 0.7 mm 1 mps 680 mmHg 83%
    18:00 +19°C° 0.7 mm 1 mps 680 mmHg 89%
    19:00 +16°C° 0.7 mm 0 mps 680 mmHg 94%
    20:00 +18°C° 0.8 mm 1 mps 680 mmHg 95%
    21:00 +18°C° 0.8 mm 1 mps 680 mmHg 95%
    22:00 +16°C° 0.8 mm 1 mps 680 mmHg 96%
    23:00 +16°C° 0.1 mm 1 mps 680 mmHg 95%

    Day after tomorrow, 20 August, Tuesday

    Time Temperature Precipitation Wind Pressure Humidity
    00:00 +16°C° 0.1 mm 1 mps 680 mmHg 94%
    01:00 +16°C° 0.1 mm 1 mps 680 mmHg 93%
    02:00 +16°C° 0.2 mm 1 mps 680 mmHg 93%
    03:00 +16°C° 0.2 mm 1 mps 680 mmHg 92%
    04:00 +16°C° 0.2 mm 1 mps 680 mmHg 92%
    05:00 +16°C° 0.1 mm 1 mps 680 mmHg 90%
    06:00 +18°C° 0.1 mm 1 mps 680 mmHg 89%
    07:00 +18°C° 0.1 mm 1 mps 681 mmHg 87%
    08:00 +20°C° 0.1 mm 1 mps 681 mmHg 79%
    09:00 +22°C° 0.1 mm 1 mps 681 mmHg 71%
    10:00 +24°C° 0.1 mm 1 mps 681 mmHg 63%
    11:00 +25°C° 0.2 mm 1 mps 681 mmHg 62%
    12:00 +25°C° 0.2 mm 1 mps 681 mmHg 61%
    13:00 +26°C° 0.2 mm 2 mps 681 mmHg 60%
    14:00 +25°C° 0.7 mm 2 mps 681 mmHg 68%
    15:00 +24°C° 0.7 mm 2 mps 680 mmHg 76%
    16:00 +23°C° 0.7 mm 2 mps 680 mmHg 85%
    17:00 +21°C° 1 mm 1 mps 680 mmHg 89%
    18:00 +20°C° 1 mm 1 mps 680 mmHg 93%
    19:00 +19°C° 1 mm 1 mps 680 mmHg 98%
    20:00 +17°C° 1 mm 2 mps 681 mmHg 98%
    21:00 +16°C° 1 mm 2 mps 681 mmHg 98%
    22:00 +15°C° 1 mm 2 mps 682 mmHg 98%
    23:00 +14°C° 0.3 mm 2 mps 682 mmHg 98%

    21 August, Wednesday

    Time Temperature Precipitation Wind Pressure Humidity
    00:00 +14°C° 0.3 mm 2 mps 682 mmHg 99%
    01:00 +13°C° 0.3 mm 2 mps 682 mmHg 99%
    02:00 +13°C° 0.3 mm 1 mps 682 mmHg 99%
    03:00 +13°C° 0.3 mm 1 mps 682 mmHg 99%
    04:00 +12°C° 0.3 mm 1 mps 682 mmHg 99%
    05:00 +12°C° 0.2 mm 1 mps 682 mmHg 99%
    06:00 +12°C° 0.2 mm 1 mps 682 mmHg 98%
    07:00 +12°C° 0.2 mm 1 mps 682 mmHg 98%
    08:00 +12°C° 0.2 mm 1 mps 682 mmHg 98%
    09:00 +12°C° 0.2 mm 1 mps 682 mmHg 98%
    10:00 +12°C° 0.2 mm 1 mps 682 mmHg 98%
    11:00 +13°C° 0.1 mm 1 mps 682 mmHg 96%
    12:00 +14°C° 0.1 mm 1 mps 682 mmHg 93%
    13:00 +15°C° 0.1 mm 1 mps 682 mmHg 91%
    14:00 +15°C° 0 mm 1 mps 682 mmHg 88%
    15:00 +16°C° 0 mm 1 mps 682 mmHg 84%
    16:00 +18°C° 0 mm 1 mps 682 mmHg 81%
    17:00 +16°C° 0 mm 1 mps 682 mmHg 84%
    18:00 +15°C° 0 mm 1 mps 682 mmHg 88%
    19:00 +15°C° 0 mm 1 mps 682 mmHg 91%
    20:00 +13°C° 0 mm 0 mps 682 mmHg 93%
    21:00 +13°C° 0 mm 0 mps 682 mmHg 95%
    22:00 +12°C° 0 mm 0 mps 682 mmHg 97%
    23:00 +12°C° 0 mm 0 mps 682 mmHg 96%

    22 August, Thursday

    Time Temperature Precipitation Wind Pressure Humidity
    00:00 +11°C° 0 mm 0 mps 682 mmHg 96%
    01:00 +11°C° 0 mm 0 mps 682 mmHg 96%
    02:00 +11°C° 0.1 mm 0 mps 681 mmHg 96%
    03:00 +11°C° 0.1 mm 0 mps 681 mmHg 96%
    04:00 +11°C° 0.1 mm 0 mps 681 mmHg 95%
    05:00 +12°C° 0 mm 0 mps 681 mmHg 94%
    06:00 +13°C° 0 mm 0 mps 682 mmHg 92%
    07:00 +13°C° 0 mm 0 mps 682 mmHg 90%
    08:00 +15°C° 0 mm 0 mps 682 mmHg 83%
    09:00 +19°C° 0 mm 1 mps 683 mmHg 76%
    10:00 +21°C° 0 mm 1 mps 683 mmHg 69%
    11:00 +22°C° 0.3 mm 1 mps 683 mmHg 70%
    12:00 +22°C° 0.3 mm 1 mps 683 mmHg 72%
    13:00 +21°C° 0.3 mm 2 mps 683 mmHg 73%
    14:00 +21°C° 0.5 mm 2 mps 683 mmHg 76%
    15:00 +20°C° 0.5 mm 2 mps 683 mmHg 78%
    16:00 +20°C° 0.5 mm 2 mps 683 mmHg 81%
    17:00 +20°C° 0.2 mm 1 mps 683 mmHg 85%
    18:00 +19°C° 0.2 mm 1 mps 683 mmHg 89%
    19:00 +18°C° 0.2 mm 1 mps 683 mmHg 93%
    20:00 +15°C° 0 mm 0 mps 683 mmHg 94%
    21:00 +15°C° 0 mm 0 mps 683 mmHg 94%
    22:00 +14°C° 0 mm 0 mps 683 mmHg 94%
    23:00 +14°C° 0 mm 0 mps 683 mmHg 94%

    23 August, Friday

    Time Temperature Precipitation Wind Pressure Humidity
    00:00 +14°C° 0 mm 0 mps 683 mmHg 93%
    01:00 +14°C° 0 mm 0 mps 683 mmHg 93%
    02:00 +13°C° 0 mm 0 mps 682 mmHg 93%
    03:00 +13°C° 0 mm 0 mps 682 mmHg 93%
    04:00 +12°C° 0 mm 0 mps 682 mmHg 93%
    05:00 +13°C° 0 mm 0 mps 682 mmHg 91%
    06:00 +14°C° 0 mm 0 mps 682 mmHg 89%
    07:00 +15°C° 0 mm 0 mps 683 mmHg 87%
    08:00 +19°C° 0 mm 1 mps 683 mmHg 78%
    09:00 +21°C° 0 mm 1 mps 683 mmHg 69%
    10:00 +24°C° 0 mm 1 mps 683 mmHg 60%
    11:00 +25°C° 0.1 mm 1 mps 683 mmHg 58%
    12:00 +25°C° 0.1 mm 1 mps 683 mmHg 56%
    13:00 +26°C° 0.1 mm 2 mps 683 mmHg 54%
    14:00 +26°C° 0.5 mm 2 mps 683 mmHg 58%
    15:00 +25°C° 0.5 mm 2 mps 683 mmHg 63%
    16:00 +24°C° 0.5 mm 2 mps 682 mmHg 67%
    17:00 +21°C° 0.8 mm 2 mps 682 mmHg 75%
    18:00 +20°C° 0.8 mm 1 mps 681 mmHg 84%
    19:00 +18°C° 0.8 mm 1 mps 681 mmHg 92%
    20:00 +18°C° 0.1 mm 1 mps 681 mmHg 91%
    21:00 +16°C° 0.1 mm 1 mps 681 mmHg 91%
    22:00 +16°C° 0.1 mm 1 mps 681 mmHg 90%
    23:00 +15°C° 0 mm 1 mps 681 mmHg 90%
    Show more